| time (UTC) | temp F | wind direction | speed knots | gust knots | rain 1hr in | rain 24hr in | rain mn in | humidity % | barometer mb |
| 20260903015709 | 90 | 180 | 0.9 | 2.6 | 0.00 | 0.00 | 0.00 | 34 | 1010.8 |
| 20260903015205 | 90 | 180 | 0.0 | 2.6 | 0.00 | 0.00 | 0.00 | 34 | 1010.6 |
| 20260903014701 | 90 | 180 | 0.9 | 1.7 | 0.00 | 0.00 | 0.00 | 34 | 1010.8 |
| 20260903014200 | 90 | 192 | 0.9 | 1.7 | 0.00 | 0.00 | 0.00 | 34 | 1010.9 |
| 20260903013655 | 91 | 163 | 1.7 | 2.6 | 0.00 | 0.00 | 0.00 | 33 | 1010.6 |
| 20260903013154 | 91 | 195 | 1.7 | 4.3 | 0.00 | 0.00 | 0.00 | 33 | 1010.6 |
| 20260903012653 | 91 | 180 | 1.7 | 3.5 | 0.00 | 0.00 | 0.00 | 33 | 1010.6 |
| 20260903012152 | 91 | 172 | 0.0 | 2.6 | 0.00 | 0.00 | 0.00 | 32 | 1010.4 |
| 20260903011653 | 92 | 188 | 0.9 | 5.2 | 0.00 | 0.00 | 0.00 | 32 | 1010.6 |
| 20260903011152 | 93 | 180 | 1.7 | 3.5 | 0.00 | 0.00 | 0.00 | 31 | 1010.4 |
| 20260903010647 | 93 | 167 | 2.6 | 4.3 | 0.00 | 0.00 | 0.00 | 31 | 1010.4 |
| 20260903010146 | 93 | 169 | 2.6 | 5.2 | 0.00 | 0.00 | 0.00 | 31 | 1010.1 |
| 20260903005641 | 94 | 160 | 0.9 | 4.3 | 0.00 | 0.00 | 0.00 | 31 | 1010.6 |
| 20260903005136 | 95 | 176 | 3.5 | 7.0 | 0.00 | 0.00 | 0.00 | 30 | 1010.3 |
| 20260903004631 | 95 | 196 | 2.6 | 7.0 | 0.00 | 0.00 | 0.00 | 29 | 1010.4 |
| 20260903004126 | 95 | 177 | 2.6 | 6.1 | 0.00 | 0.00 | 0.00 | 29 | 1010.4 |
| 20260903003622 | 96 | 172 | 2.6 | 7.0 | 0.00 | 0.00 | 0.00 | 29 | 1010.6 |
| 20260903003117 | 96 | 164 | 6.1 | 8.7 | 0.00 | 0.00 | 0.00 | 29 | 1010.8 |
| 20260903002612 | 96 | 189 | 3.5 | 7.0 | 0.00 | 0.00 | 0.00 | 29 | 1010.6 |
| 20260903002106 | 95 | 184 | 3.5 | 6.1 | 0.00 | 0.00 | 0.00 | 29 | 1010.4 |
| 20260903001601 | 95 | 193 | 2.6 | 6.1 | 0.00 | 0.00 | 0.00 | 30 | 1010.6 |
| 20260903001055 | 95 | 159 | 1.7 | 4.3 | 0.00 | 0.00 | 0.00 | 29 | 1010.6 |
| 20260903000551 | 95 | 171 | 5.2 | 5.2 | 0.00 | 0.00 | 0.00 | 28 | 1010.8 |
| 20260903000049 | 96 | 193 | 4.3 | 8.7 | 0.00 | 0.00 | 0.00 | 28 | 1010.4 |
| 20260902235544 | 96 | 184 | 1.7 | 5.2 | 0.00 | 0.00 | 0.00 | 27 | 1010.8 |
| 20260902235039 | 96 | 177 | 2.6 | 8.7 | 0.00 | 0.00 | 0.00 | 27 | 1010.9 |
| 20260902234538 | 97 | 173 | 5.2 | 7.8 | 0.00 | 0.00 | 0.00 | 28 | 1010.7 |
| 20260902234037 | 96 | 182 | 2.6 | 6.1 | 0.00 | 0.00 | 0.00 | 26 | 1010.6 |
| 20260902233532 | 97 | 150 | 2.6 | 3.5 | 0.00 | 0.00 | 0.00 | 27 | 1010.7 |
| 20260902233027 | 96 | 174 | 6.1 | 7.8 | 0.00 | 0.00 | 0.00 | 25 | 1010.7 |
| 20260902232526 | 96 | 174 | 6.1 | 7.0 | 0.00 | 0.00 | 0.00 | 25 | 1010.3 |
| 20260902232020 | 97 | 190 | 0.0 | 7.8 | 0.00 | 0.00 | 0.00 | 24 | 1010.6 |
| 20260902231515 | 97 | 234 | 3.5 | 3.5 | 0.00 | 0.00 | 0.00 | 25 | 1010.7 |
| 20260902231009 | 96 | 206 | 1.7 | 5.2 | 0.00 | 0.00 | 0.00 | 25 | 1010.9 |
| 20260902230509 | 96 | 184 | 3.5 | 5.2 | 0.00 | 0.00 | 0.00 | 25 | 1010.7 |
| 20260902230003 | 96 | 208 | 1.7 | 7.0 | 0.00 | 0.00 | 0.00 | 25 | 1010.9 |
| 20260902225458 | 96 | 185 | 1.7 | 4.3 | 0.00 | 0.00 | 0.00 | 26 | 1010.6 |
| 20260902224957 | 95 | 163 | 3.5 | 5.2 | 0.00 | 0.00 | 0.00 | 27 | 1010.7 |
| 20260902224451 | 96 | 182 | 3.5 | 7.0 | 0.00 | 0.00 | 0.00 | 26 | 1011.0 |
| 20260902223948 | 96 | 164 | 3.5 | 5.2 | 0.00 | 0.00 | 0.00 | 26 | 1011.0 |
| 20260902223443 | 96 | 177 | 2.6 | 5.2 | 0.00 | 0.00 | 0.00 | 27 | 1011.1 |
| 20260902222943 | 95 | 156 | 4.3 | 8.7 | 0.00 | 0.00 | 0.00 | 27 | 1011.0 |
| 20260902222441 | 95 | 181 | 4.3 | 7.0 | 0.00 | 0.00 | 0.00 | 26 | 1010.9 |
| 20260902221941 | 95 | 157 | 4.3 | 6.1 | 0.00 | 0.00 | 0.00 | 26 | 1010.8 |
| 20260902221439 | 95 | 185 | 4.3 | 6.1 | 0.00 | 0.00 | 0.00 | 25 | 1011.1 |
| 20260902220936 | 95 | 161 | 4.3 | 6.1 | 0.00 | 0.00 | 0.00 | 26 | 1011.3 |
| 20260902220435 | 95 | 178 | 3.5 | 6.1 | 0.00 | 0.00 | 0.00 | 25 | 1011.2 |
| 20260902215930 | 96 | 206 | 0.0 | 5.2 | 0.00 | 0.00 | 0.00 | 26 | 1011.1 |
| 20260902215426 | 95 | 149 | 3.5 | 6.1 | 0.00 | 0.00 | 0.00 | 27 | 1011.2 |
| 20260902214922 | 96 | 195 | 2.6 | 4.3 | 0.00 | 0.00 | 0.00 | 27 | 1011.4 |
| 20260902214420 | 95 | 189 | 2.6 | 5.2 | 0.00 | 0.00 | 0.00 | 28 | 1011.4 |
| 20260902213915 | 95 | 203 | 2.6 | 6.1 | 0.00 | 0.00 | 0.00 | 26 | 1011.3 |
| 20260902213412 | 96 | 223 | 3.5 | 7.0 | 0.00 | 0.00 | 0.00 | 25 | 1011.5 |
| 20260902212910 | 96 | 220 | 3.5 | 7.0 | 0.00 | 0.00 | 0.00 | 25 | 1011.8 |
| 20260902212406 | 96 | 244 | 3.5 | 8.7 | 0.00 | 0.00 | 0.00 | 24 | 1011.5 |
| 20260902211902 | 95 | 235 | 4.3 | 9.6 | 0.00 | 0.00 | 0.00 | 26 | 1011.9 |
| 20260902211358 | 95 | 223 | 3.5 | 9.6 | 0.00 | 0.00 | 0.00 | 27 | 1012.0 |
| 20260902210853 | 94 | 236 | 2.6 | 13.0 | 0.00 | 0.00 | 0.00 | 26 | 1011.9 |
| 20260902210352 | 95 | 212 | 4.3 | 13.9 | 0.00 | 0.00 | 0.00 | 25 | 1012.1 |
| 20260902205851 | 95 | 243 | 7.8 | 19.1 | 0.00 | 0.00 | 0.00 | 27 | 1012.3 |
| 20260902205345 | 93 | 242 | 11.3 | 19.1 | 0.00 | 0.00 | 0.00 | 30 | 1012.0 |
| 20260902204842 | 93 | 104 | 0.0 | 8.7 | 0.00 | 0.00 | 0.00 | 33 | 1012.4 |
| 20260902204336 | 93 | 222 | 9.6 | 14.8 | 0.00 | 0.00 | 0.00 | 33 | 1012.3 |
| 20260902203832 | 94 | 173 | 4.3 | 13.9 | 0.00 | 0.00 | 0.00 | 32 | 1012.2 |
| 20260902203326 | 94 | 206 | 0.9 | 12.2 | 0.00 | 0.00 | 0.00 | 34 | 1012.3 |
| 20260902202826 | 94 | 244 | 2.6 | 14.8 | 0.00 | 0.00 | 0.00 | 34 | 1012.5 |
| 20260902202322 | 97 | 195 | 10.4 | 13.0 | 0.00 | 0.00 | 0.00 | 28 | 1012.4 |
| 20260902201818 | 98 | 291 | 0.0 | 2.6 | 0.00 | 0.00 | 0.00 | 25 | 1012.5 |
| 20260902201313 | 99 | 219 | 4.3 | 7.0 | 0.00 | 0.00 | 0.00 | 25 | 1012.3 |
| 20260902200808 | 100 | 208 | 2.6 | 7.8 | 0.00 | 0.00 | 0.00 | 24 | 1012.3 |
| 20260902200303 | 100 | 165 | 4.3 | 7.8 | 0.00 | 0.00 | 0.00 | 26 | 1012.3 |
| 20260902195758 | 100 | 152 | 2.6 | 6.1 | 0.00 | 0.00 | 0.00 | 26 | 1012.6 |
| 20260902195257 | 100 | 345 | 3.5 | 5.2 | 0.00 | 0.00 | 0.00 | 26 | 1012.4 |
| 20260902194752 | 100 | 24 | 0.0 | 5.2 | 0.00 | 0.00 | 0.00 | 25 | 1012.5 |
| 20260902194247 | 100 | 300 | 0.0 | 3.5 | 0.00 | 0.00 | 0.00 | 26 | 1012.7 |
| 20260902193743 | 99 | 196 | 4.3 | 8.7 | 0.00 | 0.00 | 0.00 | 26 | 1012.6 |
| 20260902193238 | 100 | 235 | 0.0 | 3.5 | 0.00 | 0.00 | 0.00 | 27 | 1013.0 |
| 20260902192736 | 98 | 62 | 2.6 | 4.3 | 0.00 | 0.00 | 0.00 | 28 | 1013.0 |
| 20260902192236 | 99 | 239 | 2.6 | 2.6 | 0.00 | 0.00 | 0.00 | 26 | 1013.0 |
| 20260902191730 | 98 | 192 | 1.7 | 7.8 | 0.00 | 0.00 | 0.00 | 27 | 1013.0 |
| 20260902191225 | 100 | 171 | 4.3 | 4.3 | 0.00 | 0.00 | 0.00 | 26 | 1013.2 |
| 20260902190721 | 99 | 270 | 0.0 | 5.2 | 0.00 | 0.00 | 0.00 | 27 | 1013.1 |
| 20260902190220 | 98 | 0 | 1.7 | 3.5 | 0.00 | 0.00 | 0.00 | 27 | 1013.3 |
| 20260902185716 | 97 | 262 | 0.0 | 7.0 | 0.00 | 0.00 | 0.00 | 28 | 1013.3 |
| 20260902185212 | 99 | 235 | 1.7 | 4.3 | 0.00 | 0.00 | 0.00 | 28 | 1013.5 |
| 20260902184707 | 98 | 225 | 0.0 | 4.3 | 0.00 | 0.00 | 0.00 | 28 | 1013.6 |
| 20260902184202 | 98 | 190 | 1.7 | 4.3 | 0.00 | 0.00 | 0.00 | 28 | 1013.6 |
| 20260902183658 | 97 | 180 | 2.6 | 6.1 | 0.00 | 0.00 | 0.00 | 28 | 1013.6 |
| 20260902183154 | 97 | 194 | 0.9 | 4.3 | 0.00 | 0.00 | 0.00 | 29 | 1014.1 |
| 20260902182650 | 97 | 166 | 2.6 | 4.3 | 0.00 | 0.00 | 0.00 | 30 | 1014.2 |
| 20260902182147 | 97 | 191 | 5.2 | 7.8 | 0.00 | 0.00 | 0.00 | 30 | 1014.2 |
| 20260902181642 | 96 | 114 | 1.7 | 4.3 | 0.00 | 0.00 | 0.00 | 30 | 1014.1 |
| 20260902181142 | 96 | 168 | 3.5 | 3.5 | 0.00 | 0.00 | 0.00 | 30 | 1014.5 |
| 20260902180642 | 97 | 161 | 0.0 | 3.5 | 0.00 | 0.00 | 0.00 | 29 | 1014.5 |
| 20260902180138 | 95 | 156 | 1.7 | 7.0 | 0.00 | 0.00 | 0.00 | 31 | 1014.5 |
| 20260902175637 | 96 | 197 | 2.6 | 3.5 | 0.00 | 0.00 | 0.00 | 30 | 1014.2 |
| 20260902175133 | 94 | 348 | 0.0 | 4.3 | 0.00 | 0.00 | 0.00 | 32 | 1014.4 |
| 20260902174629 | 95 | 0 | 0.0 | 2.6 | 0.00 | 0.00 | 0.00 | 32 | 1014.8 |
| 20260902174125 | 95 | 150 | 2.6 | 3.5 | 0.00 | 0.00 | 0.00 | 31 | 1014.6 |
| 20260902173620 | 95 | 262 | 4.3 | 4.3 | 0.00 | 0.00 | 0.00 | 32 | 1014.7 |
| 20260902173115 | 94 | 183 | 2.6 | 5.2 | 0.00 | 0.00 | 0.00 | 33 | 1015.0 |
| 20260902172609 | 96 | 156 | 6.1 | 6.1 | 0.00 | 0.00 | 0.00 | 31 | 1015.0 |
| 20260902172103 | 95 | 26 | 2.6 | 3.5 | 0.00 | 0.00 | 0.00 | 31 | 1015.1 |
| 20260902171559 | 94 | 114 | 0.9 | 3.5 | 0.00 | 0.00 | 0.00 | 33 | 1015.3 |
| 20260902171055 | 94 | 154 | 0.9 | 2.6 | 0.00 | 0.00 | 0.00 | 33 | 1015.0 |
| 20260902170550 | 93 | 181 | 5.2 | 5.2 | 0.00 | 0.00 | 0.00 | 33 | 1015.3 |
| 20260902170045 | 92 | 103 | 0.0 | 4.3 | 0.00 | 0.00 | 0.00 | 35 | 1015.3 |
| 20260902165539 | 96 | 151 | 0.0 | 1.7 | 0.00 | 0.00 | 0.00 | 32 | 1015.8 |
| 20260902165034 | 93 | 173 | 0.0 | 3.5 | 0.00 | 0.00 | 0.00 | 34 | 1015.3 |
| 20260902164529 | 91 | 270 | 0.0 | 2.6 | 0.00 | 0.00 | 0.00 | 36 | 1015.5 |
| 20260902164028 | 90 | 23 | 1.7 | 2.6 | 0.00 | 0.00 | 0.00 | 37 | 1015.3 |
| 20260902163524 | 89 | 7 | 0.9 | 1.7 | 0.00 | 0.00 | 0.00 | 37 | 1015.4 |
| 20260902163021 | 90 | 172 | 0.0 | 1.7 | 0.00 | 0.00 | 0.00 | 36 | 1015.5 |
| 20260902162516 | 90 | 157 | 0.0 | 1.7 | 0.00 | 0.00 | 0.00 | 37 | 1015.5 |
| 20260902162011 | 89 | 166 | 0.0 | 1.7 | 0.00 | 0.00 | 0.00 | 37 | 1015.5 |
| 20260902161506 | 89 | 90 | 0.0 | 1.7 | 0.00 | 0.00 | 0.00 | 37 | 1015.5 |
| 20260902161002 | 88 | 304 | 0.0 | 2.6 | 0.00 | 0.00 | 0.00 | 38 | 1015.8 |
| 20260902160458 | 88 | 0 | 1.7 | 2.6 | 0.00 | 0.00 | 0.00 | 39 | 1015.6 |
| 20260902155955 | 88 | 7 | 0.9 | 2.6 | 0.00 | 0.00 | 0.00 | 39 | 1015.8 |
| 20260902155451 | 88 | 276 | 0.0 | 1.7 | 0.00 | 0.00 | 0.00 | 39 | 1015.5 |
| 20260902154945 | 87 | 60 | 0.0 | 2.6 | 0.00 | 0.00 | 0.00 | 41 | 1015.9 |
| 20260902154440 | 86 | 300 | 0.0 | 2.6 | 0.00 | 0.00 | 0.00 | 42 | 1015.6 |
| 20260902153940 | 85 | 0 | 2.6 | 2.6 | 0.00 | 0.00 | 0.00 | 42 | 1015.7 |
| 20260902153438 | 85 | 60 | 0.0 | 2.6 | 0.00 | 0.00 | 0.00 | 43 | 1015.6 |
| 20260902152934 | 84 | 90 | 2.6 | 4.3 | 0.00 | 0.00 | 0.00 | 44 | 1015.7 |
| 20260902152430 | 85 | 45 | 1.7 | 2.6 | 0.00 | 0.00 | 0.00 | 42 | 1015.8 |
| 20260902151925 | 83 | 90 | 0.9 | 2.6 | 0.00 | 0.00 | 0.00 | 45 | 1015.7 |
| 20260902151421 | 83 | 90 | 0.0 | 0.9 | 0.00 | 0.00 | 0.00 | 46 | 1015.8 |
| 20260902150915 | 80 | 63 | 1.7 | 2.6 | 0.00 | 0.00 | 0.00 | 49 | 1015.8 |
| 20260902150411 | 80 | 84 | 1.7 | 3.5 | 0.00 | 0.00 | 0.00 | 49 | 1015.7 |
| 20260902145910 | 80 | 59 | 2.6 | 3.5 | 0.00 | 0.00 | 0.00 | 48 | 1015.7 |
| 20260902145406 | 81 | 123 | 1.7 | 2.6 | 0.00 | 0.00 | 0.00 | 48 | 1015.6 |
| 20260902144901 | 81 | 23 | 1.7 | 1.7 | 0.00 | 0.00 | 0.00 | 48 | 1015.8 |
| 20260902144357 | 82 | 12 | 0.0 | 2.6 | 0.00 | 0.00 | 0.00 | 47 | 1015.7 |
| 20260902143857 | 80 | 349 | 1.7 | 4.3 | 0.00 | 0.00 | 0.00 | 49 | 1015.6 |
| 20260902143352 | 81 | 14 | 0.9 | 2.6 | 0.00 | 0.00 | 0.00 | 49 | 1015.6 |
| 20260902142848 | 81 | 356 | 1.7 | 2.6 | 0.00 | 0.00 | 0.00 | 48 | 1015.5 |
| 20260902142344 | 81 | 90 | 0.0 | 0.9 | 0.00 | 0.00 | 0.00 | 49 | 1015.6 |
| 20260902141839 | 80 | 4 | 1.7 | 2.6 | 0.00 | 0.00 | 0.00 | 48 | 1015.4 |
| 20260902141334 | 80 | 328 | 0.0 | 2.6 | 0.00 | 0.00 | 0.00 | 49 | 1015.4 |
| 20260902140833 | 80 | 270 | 0.0 | 1.7 | 0.00 | 0.00 | 0.00 | 48 | 1015.4 |
| 20260902140328 | 79 | 222 | 0.0 | 2.6 | 0.00 | 0.00 | 0.00 | 49 | 1015.5 |
| 20260902135828 | 78 | 334 | 0.0 | 0.9 | 0.00 | 0.00 | 0.00 | 51 | 1015.4 |
| 20260902135324 | 76 | 0 | 0.9 | 2.6 | 0.00 | 0.00 | 0.00 | 53 | 1015.0 |
| 20260902134823 | 76 | 18 | 2.6 | 2.6 | 0.00 | 0.00 | 0.00 | 54 | 1015.1 |
| 20260902134319 | 76 | 0 | 0.0 | 0.0 | 0.00 | 0.00 | 0.00 | 54 | 1015.4 |
| 20260902133814 | 75 | 352 | 1.7 | 1.7 | 0.00 | 0.00 | 0.00 | 56 | 1015.0 |
| 20260902133314 | 74 | 15 | 0.9 | 1.7 | 0.00 | 0.00 | 0.00 | 58 | 1015.0 |
| 20260902132809 | 73 | 19 | 1.7 | 1.7 | 0.00 | 0.00 | 0.00 | 59 | 1015.1 |
| 20260902132306 | 72 | 0 | 0.9 | 1.7 | 0.00 | 0.00 | 0.00 | 61 | 1015.0 |
| 20260902131800 | 71 | 348 | 0.9 | 2.6 | 0.00 | 0.00 | 0.00 | 61 | 1015.1 |
| 20260902131256 | 70 | 5 | 0.9 | 1.7 | 0.00 | 0.00 | 0.00 | 61 | 1014.9 |
| 20260902130755 | 70 | 23 | 0.9 | 1.7 | 0.00 | 0.00 | 0.00 | 61 | 1015.0 |
| 20260902130251 | 70 | 5 | 0.9 | 2.6 | 0.00 | 0.00 | 0.00 | 61 | 1014.7 |
| 20260902125747 | 70 | 326 | 0.0 | 1.7 | 0.00 | 0.00 | 0.00 | 62 | 1015.0 |
| 20260902125242 | 70 | 353 | 0.0 | 0.9 | 0.00 | 0.00 | 0.00 | 63 | 1015.0 |
| 20260902124738 | 69 | 26 | 0.0 | 0.0 | 0.00 | 0.00 | 0.00 | 63 | 1014.9 |
| 20260902124234 | 69 | 23 | 0.0 | 1.7 | 0.00 | 0.00 | 0.00 | 63 | 1014.6 |
| 20260902123729 | 69 | 4 | 1.7 | 1.7 | 0.00 | 0.00 | 0.00 | 63 | 1014.6 |
| 20260902123225 | 69 | 40 | 0.0 | 1.7 | 0.00 | 0.00 | 0.00 | 62 | 1014.5 |
| 20260902122723 | 71 | 29 | 0.9 | 1.7 | 0.00 | 0.00 | 0.00 | 60 | 1014.4 |
| 20260902122219 | 71 | 285 | 0.0 | 0.0 | 0.00 | 0.00 | 0.00 | 61 | 1014.5 |
| 20260902121714 | 71 | 348 | 0.0 | 0.0 | 0.00 | 0.00 | 0.00 | 60 | 1014.6 |
| 20260902121209 | 71 | 209 | 0.0 | 0.9 | 0.00 | 0.00 | 0.00 | 59 | 1014.4 |
| 20260902120705 | 71 | 234 | 0.0 | 1.7 | 0.00 | 0.00 | 0.00 | 59 | 1014.4 |
| 20260902120201 | 71 | 352 | 0.0 | 3.5 | 0.00 | 0.00 | 0.00 | 59 | 1014.5 |
| 20260902115701 | 71 | 0 | 0.0 | 0.0 | 0.00 | 0.00 | 0.00 | 58 | 1014.5 |
| 20260902115157 | 71 | 345 | 0.0 | 0.9 | 0.00 | 0.00 | 0.00 | 58 | 1014.2 |
| 20260902114653 | 71 | 334 | 0.0 | 0.9 | 0.00 | 0.00 | 0.00 | 58 | 1014.2 |
| 20260902114148 | 72 | 0 | 0.0 | 0.9 | 0.00 | 0.00 | 0.00 | 57 | 1014.1 |
| 20260902113643 | 72 | 294 | 0.0 | 0.0 | 0.00 | 0.00 | 0.00 | 56 | 1014.2 |
| 20260902113138 | 73 | 294 | 0.0 | 0.0 | 0.00 | 0.00 | 0.00 | 56 | 1014.3 |
| 20260902112632 | 73 | 270 | 0.0 | 0.0 | 0.00 | 0.00 | 0.00 | 56 | 1014.4 |
| 20260902112130 | 73 | 355 | 0.0 | 1.7 | 0.00 | 0.00 | 0.00 | 55 | 1014.2 |
| 20260902111625 | 73 | 0 | 0.0 | 1.7 | 0.00 | 0.00 | 0.00 | 57 | 1014.4 |
| 20260902111121 | 74 | 81 | 0.0 | 0.0 | 0.00 | 0.00 | 0.00 | 59 | 1014.5 |
| 20260902110617 | 74 | 81 | 0.0 | 0.0 | 0.00 | 0.00 | 0.00 | 60 | 1014.3 |
| 20260902110113 | 74 | 81 | 0.0 | 0.0 | 0.00 | 0.00 | 0.00 | 60 | 1014.3 |
| 20260902105612 | 74 | 78 | 0.0 | 1.7 | 0.00 | 0.00 | 0.00 | 60 | 1014.2 |
| 20260902105107 | 73 | 14 | 0.0 | 0.0 | 0.00 | 0.00 | 0.00 | 61 | 1014.2 |
| 20260902104602 | 73 | 165 | 0.0 | 0.0 | 0.00 | 0.00 | 0.00 | 61 | 1014.2 |
| 20260902104057 | 73 | 165 | 0.0 | 0.9 | 0.00 | 0.00 | 0.00 | 61 | 1014.2 |
| 20260902103552 | 73 | 63 | 0.0 | 0.0 | 0.00 | 0.00 | 0.00 | 59 | 1014.5 |
| 20260902103047 | 75 | 300 | 0.0 | 0.9 | 0.00 | 0.00 | 0.00 | 59 | 1014.2 |
| 20260902102544 | 74 | 8 | 0.0 | 0.0 | 0.00 | 0.00 | 0.00 | 59 | 1014.1 |
| 20260902102041 | 74 | 8 | 0.0 | 0.0 | 0.00 | 0.00 | 0.00 | 60 | 1014.3 |
| 20260902101536 | 73 | 8 | 0.0 | 1.7 | 0.00 | 0.00 | 0.00 | 59 | 1014.4 |
| 20260902101035 | 75 | 345 | 0.9 | 2.6 | 0.00 | 0.00 | 0.00 | 57 | 1014.1 |
| 20260902100534 | 77 | 172 | 0.0 | 0.0 | 0.00 | 0.00 | 0.00 | 56 | 1014.3 |
| 20260902100034 | 77 | 165 | 0.0 | 0.9 | 0.00 | 0.00 | 0.00 | 56 | 1014.1 |
| 20260902095534 | 77 | 164 | 1.7 | 2.6 | 0.00 | 0.00 | 0.00 | 56 | 1014.2 |
| 20260902095033 | 77 | 203 | 0.0 | 0.9 | 0.00 | 0.00 | 0.00 | 56 | 1014.1 |
| 20260902094529 | 77 | 261 | 0.0 | 0.0 | 0.00 | 0.00 | 0.00 | 56 | 1014.1 |
| 20260902094025 | 78 | 187 | 0.0 | 0.9 | 0.00 | 0.00 | 0.00 | 56 | 1014.1 |
| 20260902093519 | 77 | 261 | 0.0 | 1.7 | 0.00 | 0.00 | 0.00 | 55 | 1014.2 |
| 20260902093019 | 79 | 216 | 0.0 | 1.7 | 0.00 | 0.00 | 0.00 | 53 | 1014.2 |
| 20260902092514 | 79 | 173 | 0.9 | 3.5 | 0.00 | 0.00 | 0.00 | 53 | 1014.2 |
| 20260902092009 | 79 | 200 | 0.9 | 2.6 | 0.00 | 0.00 | 0.00 | 53 | 1014.2 |
| 20260902091504 | 79 | 145 | 0.9 | 2.6 | 0.00 | 0.00 | 0.00 | 53 | 1014.4 |
| 20260902091000 | 79 | 180 | 0.9 | 2.6 | 0.00 | 0.00 | 0.00 | 53 | 1014.1 |
| 20260902090455 | 79 | 194 | 1.7 | 3.5 | 0.00 | 0.00 | 0.00 | 54 | 1014.3 |
| 20260902085954 | 79 | 180 | 2.6 | 2.6 | 0.00 | 0.00 | 0.00 | 54 | 1014.2 |
| 20260902085449 | 78 | 183 | 1.7 | 2.6 | 0.00 | 0.00 | 0.00 | 55 | 1014.2 |
| 20260902084944 | 78 | 148 | 1.7 | 1.7 | 0.00 | 0.00 | 0.00 | 55 | 1014.3 |
| 20260902084441 | 77 | 151 | 0.0 | 1.7 | 0.00 | 0.00 | 0.00 | 56 | 1014.2 |
| 20260902083931 | 77 | 81 | 0.0 | 0.0 | 0.00 | 0.00 | 0.00 | 55 | 1014.4 |
| 20260902083430 | 77 | 74 | 0.0 | 0.9 | 0.00 | 0.00 | 0.00 | 54 | 1014.4 |
| 20260902082925 | 78 | 184 | 1.7 | 3.5 | 0.00 | 0.00 | 0.00 | 54 | 1014.1 |
| 20260902082421 | 78 | 170 | 1.7 | 3.5 | 0.00 | 0.00 | 0.00 | 54 | 1014.3 |
| 20260902081918 | 78 | 168 | 0.0 | 2.6 | 0.00 | 0.00 | 0.00 | 54 | 1014.3 |
| 20260902081414 | 78 | 175 | 1.7 | 3.5 | 0.00 | 0.00 | 0.00 | 53 | 1014.4 |
| 20260902080908 | 78 | 151 | 0.0 | 2.6 | 0.00 | 0.00 | 0.00 | 53 | 1014.6 |
| 20260902080404 | 78 | 102 | 0.0 | 1.7 | 0.00 | 0.00 | 0.00 | 52 | 1014.3 |
| 20260902075903 | 78 | 81 | 0.0 | 2.6 | 0.00 | 0.00 | 0.00 | 52 | 1014.2 |
| 20260902075400 | 78 | 150 | 0.0 | 1.7 | 0.00 | 0.00 | 0.00 | 52 | 1014.3 |
| 20260902074855 | 79 | 145 | 0.0 | 1.7 | 0.00 | 0.00 | 0.00 | 53 | 1014.3 |
| 20260902074351 | 80 | 157 | 0.0 | 2.6 | 0.00 | 0.00 | 0.00 | 52 | 1014.5 |
| 20260902073845 | 80 | 177 | 0.0 | 3.5 | 0.00 | 0.00 | 0.00 | 52 | 1014.4 |
| 20260902073342 | 80 | 176 | 1.7 | 3.5 | 0.00 | 0.00 | 0.00 | 51 | 1014.4 |
| 20260902072838 | 80 | 166 | 0.9 | 2.6 | 0.00 | 0.00 | 0.00 | 51 | 1014.2 |
| 20260902072333 | 80 | 184 | 3.5 | 3.5 | 0.00 | 0.00 | 0.00 | 50 | 1014.2 |
| 20260902071830 | 81 | 183 | 2.6 | 4.3 | 0.00 | 0.00 | 0.00 | 50 | 1014.4 |
| 20260902071324 | 81 | 138 | 2.6 | 5.2 | 0.00 | 0.00 | 0.00 | 49 | 1014.1 |
| 20260902070821 | 80 | 155 | 4.3 | 4.3 | 0.00 | 0.00 | 0.00 | 49 | 1014.3 |
| 20260902070320 | 80 | 195 | 1.7 | 2.6 | 0.00 | 0.00 | 0.00 | 49 | 1014.2 |
| 20260902065819 | 80 | 175 | 1.7 | 2.6 | 0.00 | 0.00 | 0.00 | 48 | 1014.5 |
| 20260902065314 | 80 | 202 | 1.7 | 3.5 | 0.00 | 0.00 | 0.00 | 48 | 1014.2 |
| 20260902064810 | 79 | 180 | 1.7 | 3.5 | 0.00 | 0.00 | 0.00 | 48 | 1014.1 |
| 20260902064306 | 80 | 184 | 0.0 | 2.6 | 0.00 | 0.00 | 0.00 | 47 | 1014.1 |
| 20260902063801 | 80 | 180 | 0.9 | 2.6 | 0.00 | 0.00 | 0.00 | 47 | 1014.1 |
| 20260902063255 | 81 | 178 | 3.5 | 3.5 | 0.00 | 0.00 | 0.00 | 46 | 1013.9 |
| 20260902062755 | 80 | 165 | 3.5 | 3.5 | 0.00 | 0.00 | 0.00 | 47 | 1013.9 |
| 20260902062250 | 79 | 163 | 0.0 | 3.5 | 0.00 | 0.00 | 0.00 | 47 | 1013.7 |
| 20260902061749 | 78 | 164 | 2.6 | 3.5 | 0.00 | 0.00 | 0.00 | 48 | 1013.9 |
| 20260902061245 | 78 | 148 | 0.0 | 1.7 | 0.00 | 0.00 | 0.00 | 48 | 1014.2 |
| 20260902060742 | 77 | 162 | 1.7 | 2.6 | 0.00 | 0.00 | 0.00 | 48 | 1014.1 |
| 20260902060237 | 78 | 143 | 1.7 | 3.5 | 0.00 | 0.00 | 0.00 | 48 | 1014.1 |
| 20260902055732 | 79 | 163 | 1.7 | 2.6 | 0.00 | 0.00 | 0.00 | 45 | 1013.9 |
| 20260902055228 | 80 | 195 | 0.9 | 1.7 | 0.00 | 0.00 | 0.00 | 45 | 1013.9 |
| 20260902054723 | 80 | 15 | 0.0 | 0.0 | 0.00 | 0.00 | 0.00 | 44 | 1013.6 |
| 20260902054219 | 80 | 114 | 0.0 | 0.0 | 0.00 | 0.00 | 0.00 | 44 | 1013.8 |
| 20260902053714 | 79 | 66 | 0.0 | 0.9 | 0.00 | 0.00 | 0.00 | 44 | 1013.9 |
| 20260902053214 | 79 | 348 | 0.0 | 1.7 | 0.00 | 0.00 | 0.00 | 44 | 1013.8 |
| 20260902052713 | 80 | 6 | 0.9 | 2.6 | 0.00 | 0.00 | 0.00 | 44 | 1014.1 |
| 20260902052209 | 80 | 36 | 1.7 | 1.7 | 0.00 | 0.00 | 0.00 | 43 | 1013.9 |
| 20260902051708 | 81 | 8 | 0.0 | 0.9 | 0.00 | 0.00 | 0.00 | 43 | 1013.9 |
| 20260902051203 | 81 | 0 | 0.0 | 0.9 | 0.00 | 0.00 | 0.00 | 43 | 1014.2 |
| 20260902050657 | 80 | 23 | 0.0 | 0.0 | 0.00 | 0.00 | 0.00 | 44 | 1013.8 |
| 20260902050153 | 81 | 188 | 0.0 | 0.0 | 0.00 | 0.00 | 0.00 | 43 | 1014.1 |
| 20260902045647 | 81 | 188 | 0.0 | 1.7 | 0.00 | 0.00 | 0.00 | 43 | 1014.1 |
| 20260902045143 | 81 | 29 | 0.0 | 1.7 | 0.00 | 0.00 | 0.00 | 42 | 1014.2 |
| 20260902044638 | 82 | 117 | 0.0 | 2.6 | 0.00 | 0.00 | 0.00 | 42 | 1014.1 |
| 20260902044134 | 82 | 0 | 0.0 | 0.0 | 0.00 | 0.00 | 0.00 | 42 | 1014.2 |
| 20260902043629 | 82 | 0 | 0.0 | 0.0 | 0.00 | 0.00 | 0.00 | 41 | 1014.2 |
| 20260902043124 | 83 | 0 | 0.0 | 1.7 | 0.00 | 0.00 | 0.00 | 41 | 1014.1 |
| 20260902042623 | 83 | 8 | 0.9 | 0.9 | 0.00 | 0.00 | 0.00 | 41 | 1014.5 |
| 20260902042119 | 83 | 81 | 0.0 | 0.9 | 0.00 | 0.00 | 0.00 | 41 | 1014.2 |
| 20260902041618 | 83 | 0 | 1.7 | 3.5 | 0.00 | 0.00 | 0.00 | 42 | 1013.8 |
| 20260902041113 | 82 | 342 | 0.0 | 2.6 | 0.00 | 0.00 | 0.00 | 42 | 1014.1 |
| 20260902040608 | 82 | 0 | 0.0 | 0.9 | 0.00 | 0.00 | 0.00 | 42 | 1013.9 |
| 20260902040103 | 82 | 15 | 0.0 | 0.0 | 0.00 | 0.00 | 0.00 | 42 | 1014.1 |
| 20260902035601 | 82 | 15 | 0.0 | 0.0 | 0.00 | 0.00 | 0.00 | 42 | 1013.9 |
| 20260902035056 | 82 | 15 | 0.0 | 0.0 | 0.00 | 0.00 | 0.00 | 43 | 1013.7 |
| 20260902034555 | 82 | 15 | 0.0 | 0.0 | 0.00 | 0.00 | 0.00 | 43 | 1013.9 |
| 20260902034055 | 83 | 15 | 0.0 | 0.0 | 0.00 | 0.00 | 0.00 | 42 | 1013.8 |
| 20260902033554 | 83 | 15 | 0.0 | 0.9 | 0.00 | 0.00 | 0.00 | 42 | 1013.7 |
| 20260902033049 | 83 | 352 | 0.0 | 1.7 | 0.00 | 0.00 | 0.00 | 43 | 1013.7 |
| 20260902032548 | 83 | 352 | 0.0 | 0.9 | 0.00 | 0.00 | 0.00 | 43 | 1013.3 |
| 20260902032043 | 84 | 353 | 0.0 | 0.0 | 0.00 | 0.00 | 0.00 | 42 | 1013.6 |
| 20260902031538 | 84 | 353 | 0.0 | 2.6 | 0.00 | 0.00 | 0.00 | 42 | 1013.5 |
| 20260902031034 | 84 | 351 | 3.5 | 3.5 | 0.00 | 0.00 | 0.00 | 41 | 1013.4 |
| 20260902030529 | 84 | 8 | 2.6 | 2.6 | 0.00 | 0.00 | 0.00 | 41 | 1013.3 |
| 20260902030028 | 85 | 12 | 1.7 | 2.6 | 0.00 | 0.00 | 0.00 | 41 | 1013.3 |
| 20260902025523 | 85 | 24 | 1.7 | 2.6 | 0.00 | 0.00 | 0.00 | 41 | 1013.0 |
| 20260902025018 | 86 | 0 | 1.7 | 2.6 | 0.00 | 0.00 | 0.00 | 41 | 1013.1 |
| 20260902024514 | 86 | 7 | 0.9 | 1.7 | 0.00 | 0.00 | 0.00 | 41 | 1013.0 |
| 20260902024008 | 86 | 351 | 1.7 | 1.7 | 0.00 | 0.00 | 0.00 | 41 | 1013.0 |
| 20260902023504 | 86 | 14 | 0.9 | 1.7 | 0.00 | 0.00 | 0.00 | 40 | 1013.0 |
| 20260902023004 | 86 | 15 | 0.0 | 1.7 | 0.00 | 0.00 | 0.00 | 40 | 1013.0 |
| 20260902022458 | 86 | 70 | 0.0 | 2.6 | 0.00 | 0.00 | 0.00 | 40 | 1013.1 |
| 20260902021954 | 86 | 53 | 1.7 | 2.6 | 0.00 | 0.00 | 0.00 | 40 | 1012.9 |
| 20260902021449 | 87 | 60 | 1.7 | 3.5 | 0.00 | 0.00 | 0.00 | 39 | 1012.7 |
| 20260902020944 | 87 | 48 | 1.7 | 2.6 | 0.00 | 0.00 | 0.00 | 39 | 1012.3 |
| 20260902020440 | 87 | 45 | 1.7 | 1.7 | 0.00 | 0.00 | 0.00 | 38 | 1012.3 |